Simultaneous Nadir Overpasses (SNOs) Predictions

Prediction of SNOs between GOES-17 and METOP-C Satellite Orbit:

Table of predicted SNOs for the next 14.0 days since TLE Epoch: 7/24/2020
Index Date Time (GOES-17) GOES-17 Lat,Lon METOP-C Lat,Lon Distance(km) Time Diff (sec)
1 07/25/2020 18:30:05 -0.00,-137.20 -0.63,-134.41 317.85 80
2 07/27/2020 06:49:04 0.00,-137.19 -0.38,-139.00 205.76 80
3 07/28/2020 06:25:44 0.00,-137.19 0.69,-134.00 363.20 80
4 07/29/2020 18:44:36 -0.01,-137.18 0.29,-138.57 157.20 80
5 07/30/2020 18:26:36 -0.01,-137.18 -0.78,-133.56 411.37 80
6 08/01/2020 06:42:55 0.01,-137.16 -0.24,-138.16 113.64 80
7 08/02/2020 06:24:55 0.01,-137.15 0.89,-133.16 454.61 80
8 08/03/2020 18:41:07 -0.01,-137.14 0.13,-137.72 66.64 80
9 08/06/2020 06:42:07 0.01,-137.11 -0.03,-137.32 23.84 80
